StationID,Date,MaxTemp,MinTemp,Precipitation,Snowfall,SnowDepth
"USC00505857","2009-02-01",-14.98,-29.92,0.00,0.00,660.00
"USC00505857","2009-02-02",-9.04,-22.00,25.00,20.00,686.00
"USC00505857","2009-02-03",-18.94,-31.00,0.00,0.00,686.00
"USC00505857","2009-02-04",-14.98,-25.06,0.00,0.00,686.00
"USC00505857","2009-02-05",-20.02,-23.08,0.00,0.00,660.00
"USC00505857","2009-02-06",12.92,-23.08,25.00,51.00,711.00
"USC00505857","2009-02-07",3.02,-22.00,0.00,0.00,686.00
"USC00505857","2009-02-08",5.00,-9.04,0.00,0.00,686.00
"USC00505857","2009-02-09",3.02,-18.94,0.00,0.00,686.00
"USC00505857","2009-02-10",-2.92,-25.06,0.00,0.00,686.00
"USC00505857","2009-02-11",3.92,-25.06,0.00,0.00,686.00
"USC00505857","2009-02-12",1.94,-18.04,0.00,0.00,686.00
"USC00505857","2009-02-13",12.92,-16.96,0.00,0.00,686.00
"USC00505857","2009-02-14",12.02,-2.92,0.00,0.00,686.00
"USC00505857","2009-02-15",19.04,1.94,0.00,0.00,686.00
"USC00505857","2009-02-16",26.06,8.96,0.00,0.00,660.00
"USC00505857","2009-02-17",24.98,3.02,0.00,0.00,660.00
"USC00505857","2009-02-18",12.02,3.02,30.00,51.00,711.00
"USC00505857","2009-02-19",35.06,3.92,0.00,0.00,686.00
"USC00505857","2009-02-20",24.08,-2.02,41.00,51.00,711.00
"USC00505857","2009-02-21",12.02,-2.02,0.00,0.00,686.00
"USC00505857","2009-02-22",6.98,-14.08,0.00,0.00,686.00
"USC00505857","2009-02-23",3.92,-9.94,0.00,0.00,660.00
"USC00505857","2009-02-24",3.92,-9.94,0.00,0.00,660.00
"USC00505857","2009-02-25",19.04,-2.02,0.00,0.00,660.00
"USC00505857","2009-02-26",21.92,-0.04,0.00,0.00,660.00
"USC00505857","2009-02-27",17.06,-9.04,13.00,25.00,686.00
"USC00505857","2009-02-28",15.98,-5.98,0.00,0.00,686.00
"USC00505857","2009-03-01",12.92,-4.00,10.00,25.00,660.00
"USC00505857","2009-03-02",8.96,-18.04,0.00,0.00,660.00
"USC00505857","2009-03-03",3.92,-22.00,0.00,0.00,635.00
"USC00505857","2009-03-04",3.92,-14.98,0.00,0.00,635.00
"USC00505857","2009-03-05",15.08,-11.02,0.00,0.00,635.00
"USC00505857","2009-03-06",24.08,15.08,170.00,229.00,864.00
"USC00505857","2009-03-07",15.98,-9.04,0.00,0.00,864.00
"USC00505857","2009-03-08",-0.94,-20.92,0.00,0.00,864.00
"USC00505857","2009-03-09",8.96,-14.98,0.00,0.00,838.00
"USC00505857","2009-03-10",15.08,8.06,0.00,0.00,813.00
"USC00505857","2009-03-11",28.04,12.02,0.00,0.00,787.00
"USC00505857","2009-03-12",24.08,-0.94,0.00,0.00,787.00
"USC00505857","2009-03-13",15.08,-0.94,0.00,0.00,787.00
"USC00505857","2009-03-14",10.94,-5.98,0.00,0.00,787.00
"USC00505857","2009-03-15",-5.98,-27.04,0.00,0.00,787.00
"USC00505857","2009-03-16",-11.92,-23.98,0.00,0.00,762.00
"USC00505857","2009-03-17",-11.02,-23.98,0.00,0.00,737.00
"USC00505857","2009-03-18",-9.94,-22.00,0.00,0.00,737.00
"USC00505857","2009-03-19",-7.96,-22.00,0.00,0.00,737.00
"USC00505857","2009-03-20",3.02,-16.06,0.00,0.00,711.00
"USC00505857","2009-03-21",-5.08,-20.02,0.00,0.00,711.00
"USC00505857","2009-03-22",-2.92,-20.02,0.00,0.00,711.00
"USC00505857","2009-03-23",23.00,-7.06,0.00,0.00,711.00
"USC00505857","2009-03-24",23.00,-2.02,0.00,0.00,686.00
"USC00505857","2009-03-25",10.04,-4.00,0.00,0.00,686.00
"USC00505857","2009-03-26",19.94,3.92,0.00,0.00,686.00
"USC00505857","2009-03-27",23.00,6.98,0.00,0.00,660.00
"USC00505857","2009-03-28",32.00,10.94,0.00,0.00,660.00
"USC00505857","2009-03-29",21.02,8.96,0.00,0.00,660.00
"USC00505857","2009-03-30",35.96,8.96,0.00,0.00,660.00
"USC00505857","2009-03-31",28.94,3.02,0.00,0.00,660.00
"USC00505857","2009-04-01",28.94,-0.04,0.00,0.00,660.00
"USC00505857","2009-04-02",24.98,-9.04,0.00,0.00,660.00
"USC00505857","2009-04-03",28.94,-7.96,0.00,0.00,660.00
"USC00505857","2009-04-04",26.96,-7.96,0.00,0.00,660.00
"USC00505857","2009-04-05",19.94,8.06,0.00,0.00,660.00
"USC00505857","2009-04-06",19.94,10.94,0.00,0.00,635.00
"USC00505857","2009-04-07",26.06,8.96,0.00,0.00,635.00
"USC00505857","2009-04-08",37.04,3.92,0.00,0.00,610.00
"USC00505857","2009-04-09",33.98,6.08,0.00,0.00,610.00
"USC00505857","2009-04-10",39.92,8.06,0.00,0.00,610.00
"USC00505857","2009-04-11",28.04,12.02,0.00,0.00,610.00
"USC00505857","2009-04-12",28.04,10.04,0.00,0.00,610.00
"USC00505857","2009-04-13",30.92,21.92,0.00,0.00,584.00
"USC00505857","2009-04-14",28.04,23.00,0.00,0.00,584.00
"USC00505857","2009-04-15",28.94,19.94,0.00,0.00,559.00
"USC00505857","2009-04-16",32.00,24.08,0.00,0.00,508.00
"USC00505857","2009-04-17",32.00,26.96,0.00,0.00,508.00
"USC00505857","2009-04-18",30.02,24.08,0.00,0.00,457.00
"USC00505857","2009-04-19",32.00,19.04,0.00,0.00,432.00
"USC00505857","2009-04-20",32.00,14.00,0.00,0.00,432.00
"USC00505857","2009-04-21",32.00,19.04,0.00,0.00,406.00
"USC00505857","2009-04-22",35.96,12.02,0.00,0.00,381.00
"USC00505857","2009-04-23",48.92,33.08,0.00,0.00,356.00
"USC00505857","2009-04-24",39.92,30.02,0.00,0.00,330.00
"USC00505857","2009-04-25",39.02,24.98,0.00,0.00,305.00
"USC00505857","2009-04-26",51.98,32.00,0.00,0.00,254.00
"USC00505857","2009-04-27",55.94,26.06,0.00,0.00,203.00
"USC00505857","2009-04-28",59.00,26.06,0.00,0.00,127.00
"USC00505857","2009-04-29",62.06,28.04,0.00,0.00,51.00
"USC00505857","2009-04-30",62.96,28.04,0.00,0.00,0.00
"USC00505857","2009-05-01",66.02,26.96,0.00,0.00,0.00
"USC00505857","2009-05-02",68.00,28.04,0.00,0.00,0.00
"USC00505857","2009-05-03",66.92,28.04,0.00,0.00,0.00
"USC00505857","2009-05-04",57.02,35.06,0.00,0.00,0.00
"USC00505857","2009-05-05",55.04,30.02,0.00,0.00,0.00
"USC00505857","2009-05-06",37.94,30.02,0.00,0.00,0.00
"USC00505857","2009-05-07",48.92,30.02,0.00,0.00,0.00
"USC00505857","2009-05-08",42.08,26.96,0.00,0.00,0.00
"USC00505857","2009-05-09",51.08,28.94,0.00,0.00,0.00
"USC00505857","2009-05-10",46.94,24.98,0.00,0.00,0.00
"USC00505857","2009-05-11",37.04,28.04,0.00,0.00,0.00
"USC00505857","2009-05-12",48.02,26.96,0.00,0.00,0.00
"USC00505857","2009-05-13",46.04,24.08,0.00,0.00,0.00
"USC00505857","2009-05-14",42.08,28.04,0.00,0.00,0.00
"USC00505857","2009-05-15",42.08,28.04,0.00,0.00,0.00
"USC00505857","2009-05-16",39.02,21.92,0.00,0.00,0.00
"USC00505857","2009-05-17",39.02,21.92,0.00,0.00,0.00
"USC00505857","2009-05-18",48.92,21.92,0.00,0.00,0.00
"USC00505857","2009-05-19",48.02,26.06,0.00,0.00,0.00
"USC00505857","2009-05-20",48.02,30.92,0.00,0.00,0.00
"USC00505857","2009-05-21",50.00,42.08,0.00,0.00,0.00
"USC00505857","2009-05-22",48.92,37.94,0.00,0.00,0.00
"USC00505857","2009-05-23",51.08,26.96,0.00,0.00,0.00
"USC00505857","2009-05-24",51.98,28.94,0.00,0.00,0.00
"USC00505857","2009-05-25",64.04,32.00,0.00,0.00,0.00
"USC00505857","2009-05-26",68.00,33.08,0.00,0.00,0.00
"USC00505857","2009-05-27",66.92,37.04,0.00,0.00,0.00
"USC00505857","2009-05-28",59.00,41.00,0.00,0.00,0.00
"USC00505857","2009-05-29",57.92,37.94,0.00,0.00,0.00
"USC00505857","2009-05-30",55.94,37.94,0.00,0.00,0.00
"USC00505857","2009-05-31",60.08,33.98,0.00,0.00,0.00
"USC00505857","2009-06-01",68.00,39.92,0.00,0.00,0.00
"USC00505857","2009-06-02",75.92,35.96,0.00,0.00,0.00
"USC00505857","2009-06-03",73.94,39.92,0.00,0.00,0.00
"USC00505857","2009-06-04",80.06,39.02,0.00,0.00,0.00
"USC00505857","2009-06-05",69.98,44.06,0.00,0.00,0.00
"USC00505857","2009-06-06",59.00,46.04,0.00,0.00,0.00
"USC00505857","2009-06-07",78.08,42.08,0.00,0.00,0.00
"USC00505857","2009-06-08",60.08,33.08,0.00,0.00,0.00
"USC00505857","2009-06-09",77.00,42.08,0.00,0.00,0.00
"USC00505857","2009-06-10",73.04,41.00,0.00,0.00,0.00
"USC00505857","2009-06-11",75.02,42.08,0.00,0.00,0.00
"USC00505857","2009-06-12",57.02,39.02,102.00,0.00,0.00
"USC00505857","2009-06-13",41.00,37.04,254.00,0.00,0.00
"USC00505857","2009-06-14",55.04,39.92,89.00,0.00,0.00
"USC00505857","2009-06-15",50.00,37.94,0.00,0.00,0.00
"USC00505857","2009-06-16",66.92,35.06,0.00,0.00,0.00
"USC00505857","2009-06-17",59.00,39.02,0.00,0.00,0.00
"USC00505857","2009-06-18",59.00,41.00,0.00,0.00,0.00
"USC00505857","2009-06-19",48.92,44.96,0.00,0.00,0.00
"USC00505857","2009-06-20",50.00,39.92,0.00,0.00,0.00
"USC00505857","2009-06-21",60.98,42.08,0.00,0.00,0.00
"USC00505857","2009-06-22",64.94,37.94,0.00,0.00,0.00
"USC00505857","2009-06-23",62.06,39.02,89.00,0.00,0.00
"USC00505857","2009-06-24",60.98,32.00,0.00,0.00,0.00
"USC00505857","2009-06-25",64.94,26.06,0.00,0.00,0.00
"USC00505857","2009-06-26",60.08,35.96,89.00,0.00,0.00
"USC00505857","2009-06-27",37.94,30.92,673.00,51.00,51.00
"USC00505857","2009-06-28",48.02,33.08,13.00,0.00,0.00
"USC00505857","2009-06-29",62.06,30.02,0.00,0.00,0.00
"USC00505857","2009-06-30",62.96,35.06,0.00,0.00,0.00
"USC00505857","2009-07-01",69.98,33.98,0.00,0.00,0.00
"USC00505857","2009-07-02",69.98,35.96,0.00,0.00,0.00
"USC00505857","2009-07-03",73.04,41.00,0.00,0.00,0.00
"USC00505857","2009-07-04",75.02,35.96,0.00,0.00,0.00
"USC00505857","2009-07-05",73.94,39.02,0.00,0.00,0.00
"USC00505857","2009-07-06",73.04,39.02,0.00,0.00,0.00
"USC00505857","2009-07-07",73.94,41.00,0.00,0.00,0.00
"USC00505857","2009-07-08",80.06,51.98,0.00,0.00,0.00
"USC00505857","2009-07-09",82.94,55.04,51.00,0.00,0.00
"USC00505857","2009-07-10",69.08,50.00,0.00,0.00,0.00
"USC00505857","2009-07-11",71.96,42.98,0.00,0.00,0.00
"USC00505857","2009-07-12",73.04,39.92,0.00,0.00,0.00
"USC00505857","2009-07-13",78.08,39.92,0.00,0.00,0.00
"USC00505857","2009-07-14",80.96,50.00,0.00,0.00,0.00
"USC00505857","2009-07-15",78.98,53.96,13.00,0.00,0.00
"USC00505857","2009-07-16",66.92,37.04,0.00,0.00,0.00
"USC00505857","2009-07-17",69.98,41.00,0.00,0.00,0.00
"USC00505857","2009-07-18",66.92,41.00,0.00,0.00,0.00
"USC00505857","2009-07-19",71.06,51.98,0.00,0.00,0.00
"USC00505857","2009-07-20",69.98,50.00,8.00,0.00,0.00
"USC00505857","2009-07-21",64.04,35.96,0.00,0.00,0.00
"USC00505857","2009-07-22",66.92,48.92,0.00,0.00,0.00
"USC00505857","2009-07-23",68.00,37.04,0.00,0.00,0.00
"USC00505857","2009-07-24",60.08,42.98,0.00,0.00,0.00
"USC00505857","2009-07-25",60.08,44.96,0.00,0.00,0.00
"USC00505857","2009-07-26",66.92,42.98,0.00,0.00,0.00
"USC00505857","2009-07-27",73.94,53.06,0.00,0.00,0.00
"USC00505857","2009-07-28",77.00,46.04,0.00,0.00,0.00
"USC00505857","2009-07-29",80.06,51.98,0.00,0.00,0.00
"USC00505857","2009-07-30",80.06,46.94,0.00,0.00,0.00
"USC00505857","2009-07-31",80.06,60.08,0.00,0.00,0.00
"USC00505857","2009-08-01",75.02,33.98,0.00,0.00,0.00
"USC00505857","2009-08-02",62.96,30.92,0.00,0.00,0.00
"USC00505857","2009-08-03",69.98,30.92,0.00,0.00,0.00
"USC00505857","2009-08-04",75.92,35.06,0.00,0.00,0.00
"USC00505857","2009-08-05",78.98,42.98,0.00,0.00,0.00
"USC00505857","2009-08-06",75.92,53.06,15.00,0.00,0.00
"USC00505857","2009-08-07",66.02,51.98,0.00,0.00,0.00
"USC00505857","2009-08-08",64.04,42.98,0.00,0.00,0.00
"USC00505857","2009-08-09",66.92,35.96,224.00,0.00,0.00
"USC00505857","2009-08-10",53.06,28.94,10.00,0.00,0.00
"USC00505857","2009-08-11",60.98,30.92,76.00,0.00,0.00
"USC00505857","2009-08-12",57.02,26.96,0.00,0.00,0.00
"USC00505857","2009-08-13",57.92,33.98,0.00,0.00,0.00
"USC00505857","2009-08-14",55.04,46.94,0.00,0.00,0.00
"USC00505857","2009-08-15",60.98,46.94,127.00,0.00,0.00
"USC00505857","2009-08-16",62.06,44.96,140.00,0.00,0.00
"USC00505857","2009-08-17",48.92,39.92,160.00,0.00,0.00
"USC00505857","2009-08-18",59.00,44.06,33.00,0.00,0.00
"USC00505857","2009-08-19",60.08,32.00,0.00,0.00,0.00
"USC00505857","2009-08-20",57.02,33.08,18.00,0.00,0.00
"USC00505857","2009-08-21",55.04,41.00,0.00,0.00,0.00
"USC00505857","2009-08-22",55.04,39.92,15.00,0.00,0.00
"USC00505857","2009-08-23",55.04,41.00,0.00,0.00,0.00
"USC00505857","2009-08-24",55.04,35.96,25.00,0.00,0.00
"USC00505857","2009-08-25",51.98,41.00,33.00,0.00,0.00
"USC00505857","2009-08-26",55.04,37.04,0.00,0.00,0.00
"USC00505857","2009-08-27",59.00,39.92,5.00,0.00,0.00
"USC00505857","2009-08-28",55.94,32.00,8.00,0.00,0.00
"USC00505857","2009-08-29",53.06,41.00,20.00,0.00,0.00
"USC00505857","2009-08-30",57.92,39.02,8.00,0.00,0.00
"USC00505857","2009-08-31",53.96,46.04,5.00,0.00,0.00
"USC00505857","2009-09-01",59.00,35.96,0.00,0.00,0.00
"USC00505857","2009-09-02",59.00,30.92,0.00,0.00,0.00
"USC00505857","2009-09-03",60.98,26.96,0.00,0.00,0.00
"USC00505857","2009-09-04",62.06,37.04,0.00,0.00,0.00
"USC00505857","2009-09-05",59.00,42.98,61.00,0.00,0.00
"USC00505857","2009-09-06",60.08,28.94,0.00,0.00,0.00
"USC00505857","2009-09-07",64.04,30.02,0.00,0.00,0.00
"USC00505857","2009-09-08",64.04,26.06,0.00,0.00,0.00
"USC00505857","2009-09-09",62.06,32.00,0.00,0.00,0.00
"USC00505857","2009-09-10",59.00,30.02,0.00,0.00,0.00
"USC00505857","2009-09-11",50.00,37.94,5.00,0.00,0.00
"USC00505857","2009-09-12",60.98,30.92,0.00,0.00,0.00
"USC00505857","2009-09-13",57.02,37.94,0.00,0.00,0.00
"USC00505857","2009-09-14",57.02,30.02,0.00,0.00,0.00
"USC00505857","2009-09-15",59.00,26.06,0.00,0.00,0.00
"USC00505857","2009-09-16",60.08,35.96,0.00,0.00,0.00
"USC00505857","2009-09-17",57.02,44.96,0.00,0.00,0.00
"USC00505857","2009-09-18",51.98,42.08,0.00,0.00,0.00
"USC00505857","2009-09-19",48.92,39.02,20.00,0.00,0.00
"USC00505857","2009-09-20",53.06,28.04,38.00,0.00,0.00
"USC00505857","2009-09-21",44.06,26.96,0.00,0.00,0.00
"USC00505857","2009-09-22",44.96,30.92,0.00,0.00,0.00
"USC00505857","2009-09-23",55.94,24.08,0.00,0.00,0.00
"USC00505857","2009-09-24",41.00,17.96,0.00,0.00,0.00
"USC00505857","2009-09-25",41.00,28.94,3.00,0.00,0.00
"USC00505857","2009-09-26",41.00,28.94,13.00,0.00,0.00
"USC00505857","2009-09-27",44.96,28.94,25.00,0.00,0.00
"USC00505857","2009-09-28",33.08,19.94,0.00,0.00,0.00
"USC00505857","2009-09-29",35.06,21.92,38.00,0.00,0.00
"USC00505857","2009-09-30",37.94,10.94,38.00,0.00,0.00
"USC00505857","2009-10-01",41.00,12.92,64.00,0.00,0.00
"USC00505857","2009-10-02",37.04,14.00,0.00,0.00,0.00
"USC00505857","2009-10-03",39.92,21.02,51.00,0.00,0.00
"USC00505857","2009-10-04",35.96,28.04,0.00,0.00,0.00
"USC00505857","2009-10-05",37.94,30.92,0.00,0.00,0.00
"USC00505857","2009-10-06",39.92,21.02,0.00,0.00,0.00
"USC00505857","2009-10-07",42.98,24.08,0.00,0.00,0.00
"USC00505857","2009-10-08",39.02,28.94,0.00,0.00,0.00
"USC00505857","2009-10-09",37.94,26.96,0.00,0.00,0.00
"USC00505857","2009-10-10",46.94,30.92,0.00,0.00,0.00
"USC00505857","2009-10-11",53.06,26.06,0.00,0.00,0.00
"USC00505857","2009-10-12",48.92,24.08,0.00,0.00,0.00
"USC00505857","2009-10-13",42.08,21.92,0.00,0.00,0.00
"USC00505857","2009-10-14",37.94,15.08,0.00,0.00,0.00
"USC00505857","2009-10-15",35.06,8.06,0.00,0.00,0.00
"USC00505857","2009-10-16",39.02,8.96,0.00,0.00,0.00
"USC00505857","2009-10-17",35.06,8.06,0.00,0.00,0.00
"USC00505857","2009-10-18",35.06,19.04,0.00,0.00,0.00
"USC00505857","2009-10-19",33.08,21.02,0.00,0.00,0.00
"USC00505857","2009-10-20",37.94,14.00,0.00,0.00,0.00
"USC00505857","2009-10-21",33.08,15.98,0.00,0.00,0.00
"USC00505857","2009-10-22",33.08,12.92,0.00,0.00,0.00
"USC00505857","2009-10-23",33.98,21.02,0.00,0.00,0.00
"USC00505857","2009-10-24",44.06,12.92,0.00,0.00,0.00
"USC00505857","2009-10-25",37.94,10.04,0.00,0.00,0.00
"USC00505857","2009-10-26",28.94,12.92,38.00,51.00,51.00
"USC00505857","2009-10-27",32.00,21.92,3.00,13.00,51.00
"USC00505857","2009-10-28",26.06,15.08,0.00,0.00,0.00
"USC00505857","2009-10-29",24.08,19.04,20.00,38.00,102.00
"USC00505857","2009-10-30",24.08,14.00,3.00,13.00,102.00
"USC00505857","2009-10-31",15.08,12.02,0.00,0.00,0.00
"USC00505857","2009-11-01",14.00,-4.00,0.00,0.00,0.00
"USC00505857","2009-11-02",10.04,-7.96,13.00,13.00,102.00
"USC00505857","2009-11-03",14.00,-7.06,0.00,0.00,102.00
"USC00505857","2009-11-04",14.00,-2.92,0.00,0.00,102.00
"USC00505857","2009-11-05",24.08,6.98,0.00,0.00,76.00
"USC00505857","2009-11-06",26.06,6.98,0.00,0.00,76.00
"USC00505857","2009-11-07",26.06,6.98,0.00,0.00,76.00
"USC00505857","2009-11-08",10.94,-4.00,28.00,76.00,152.00
"USC00505857","2009-11-09",5.00,-7.96,0.00,0.00,152.00
"USC00505857","2009-11-10",3.02,-13.00,0.00,0.00,127.00
"USC00505857","2009-11-11",14.00,-14.98,127.00,102.00,229.00
"USC00505857","2009-11-12",17.96,10.04,0.00,0.00,229.00
"USC00505857","2009-11-13",12.92,-16.06,25.00,25.00,254.00
"USC00505857","2009-11-14",6.98,-5.08,76.00,76.00,330.00
"USC00505857","2009-11-15",8.06,-5.98,13.00,25.00,330.00
"USC00505857","2009-11-16",1.94,-20.02,0.00,0.00,330.00
"USC00505857","2009-11-17",-5.08,-14.98,51.00,51.00,356.00
"USC00505857","2009-11-18",-4.00,-16.06,0.00,0.00,356.00
"USC00505857","2009-11-19",-2.02,-7.96,0.00,0.00,330.00
"USC00505857","2009-11-20",-2.02,-20.02,0.00,0.00,330.00
"USC00505857","2009-11-21",-7.96,-23.08,0.00,0.00,305.00
"USC00505857","2009-11-22",-11.92,-20.02,0.00,0.00,279.00
"USC00505857","2009-11-23",3.92,-18.04,0.00,0.00,254.00
"USC00505857","2009-11-24",10.04,-7.96,0.00,0.00,254.00
"USC00505857","2009-11-25",14.00,-0.04,0.00,0.00,229.00
"USC00505857","2009-11-26",14.00,-0.04,0.00,0.00,229.00
"USC00505857","2009-11-27",12.92,-0.04,0.00,0.00,229.00
"USC00505857","2009-11-28",15.98,-0.94,0.00,0.00,203.00
"USC00505857","2009-11-29",14.00,1.04,0.00,0.00,203.00
"USC00505857","2009-11-30",14.00,-0.94,0.00,0.00,203.00
"USC00505857","2009-12-01",14.00,-0.94,0.00,0.00,203.00
"USC00505857","2009-12-02",15.98,-0.04,0.00,0.00,178.00
"USC00505857","2009-12-03",28.04,5.00,38.00,76.00,254.00
"USC00505857","2009-12-04",26.96,3.92,0.00,0.00,254.00
"USC00505857","2009-12-05",19.94,3.02,0.00,0.00,229.00
"USC00505857","2009-12-06",35.06,3.92,0.00,0.00,203.00
"USC00505857","2009-12-07",35.96,10.04,0.00,0.00,178.00
"USC00505857","2009-12-08",10.04,1.04,0.00,0.00,178.00
"USC00505857","2009-12-09",6.08,-2.02,0.00,0.00,178.00
"USC00505857","2009-12-10",8.96,-2.92,0.00,0.00,178.00
"USC00505857","2009-12-11",8.96,-5.98,0.00,0.00,152.00
"USC00505857","2009-12-12",-2.02,-11.02,0.00,0.00,152.00
"USC00505857","2009-12-13",-0.04,-9.04,0.00,0.00,152.00
"USC00505857","2009-12-14",14.00,-9.04,3.00,25.00,178.00
"USC00505857","2009-12-15",8.06,-7.96,234.00,356.00,508.00
"USC00505857","2009-12-16",-0.04,-9.04,0.00,0.00,508.00
"USC00505857","2009-12-17",5.00,-9.94,0.00,0.00,508.00
"USC00505857","2009-12-18",5.00,-11.92,20.00,51.00,559.00
"USC00505857","2009-12-19",10.04,-27.04,5.00,25.00,584.00
"USC00505857","2009-12-20",-5.98,-18.94,0.00,0.00,559.00
"USC00505857","2009-12-21",8.06,-16.96,0.00,0.00,508.00
"USC00505857","2009-12-22",5.00,-5.98,0.00,0.00,483.00
"USC00505857","2009-12-23",3.92,-9.04,0.00,0.00,483.00
"USC00505857","2009-12-24",3.92,-9.04,0.00,0.00,483.00
"USC00505857","2009-12-25",12.02,-5.08,0.00,0.00,483.00
"USC00505857","2009-12-26",14.00,-2.02,3.00,25.00,508.00
"USC00505857","2009-12-27",12.02,-7.96,0.00,0.00,483.00
"USC00505857","2009-12-28",1.04,-7.06,0.00,0.00,483.00
"USC00505857","2009-12-29",-0.94,-13.00,0.00,0.00,457.00
"USC00505857","2009-12-30",1.94,-16.06,0.00,0.00,457.00
"USC00505857","2009-12-31",-9.04,-23.08,0.00,0.00,457.00
"USC00505857","2010-01-01",-0.04,-20.92,0.00,0.00,432.00
"USC00505857","2010-01-02",-0.04,-25.06,0.00,0.00,432.00
"USC00505857","2010-01-03",-20.02,-29.02,0.00,0.00,432.00
"USC00505857","2010-01-04",-16.06,-25.96,0.00,0.00,432.00
"USC00505857","2010-01-05",3.02,-16.06,0.00,0.00,432.00
"USC00505857","2010-01-06",3.02,-11.92,0.00,0.00,432.00
"USC00505857","2010-01-07",6.98,-5.98,0.00,0.00,406.00
"USC00505857","2010-01-08",8.06,-5.98,0.00,0.00,406.00
"USC00505857","2010-01-09",14.00,-9.04,0.00,0.00,406.00
"USC00505857","2010-01-10",-5.98,-27.94,0.00,0.00,406.00
"USC00505857","2010-01-11",-22.00,-29.02,0.00,0.00,406.00
"USC00505857","2010-01-12",-20.02,-25.06,0.00,0.00,406.00
"USC00505857","2010-01-13",-5.98,-20.02,8.00,51.00,457.00
"USC00505857","2010-01-14",-5.98,-14.08,5.00,25.00,483.00
"USC00505857","2010-01-15",-2.02,-11.92,0.00,0.00,483.00
"USC00505857","2010-01-16",-2.02,-14.08,0.00,0.00,483.00
"USC00505857","2010-01-17",-0.94,-11.92,0.00,0.00,457.00
"USC00505857","2010-01-18",-2.02,-14.98,0.00,0.00,457.00
"USC00505857","2010-01-19",-9.04,-16.96,0.00,0.00,457.00
"USC00505857","2010-01-20",-11.02,-18.94,0.00,0.00,457.00
"USC00505857","2010-01-21",8.06,-16.06,0.00,0.00,457.00
"USC00505857","2010-01-22",8.06,-2.92,0.00,0.00,457.00
"USC00505857","2010-01-23",10.04,-2.02,8.00,76.00,533.00
"USC00505857","2010-01-24",14.00,6.08,0.00,0.00,533.00
"USC00505857","2010-01-25",15.98,-2.02,0.00,0.00,533.00
"USC00505857","2010-01-26",3.02,-9.94,0.00,0.00,508.00
"USC00505857","2010-01-27",3.92,-7.06,0.00,0.00,508.00
"USC00505857","2010-01-28",15.08,-5.98,0.00,0.00,508.00
"USC00505857","2010-01-29",15.08,-2.92,0.00,0.00,508.00
"USC00505857","2010-01-30",17.06,5.00,0.00,0.00,483.00
"USC00505857","2010-01-31",12.02,-9.04,0.00,0.00,483.00
"USC00505857","2010-02-01",6.98,-9.04,0.00,0.00,483.00
"USC00505857","2010-02-02",10.94,-2.92,0.00,0.00,483.00
"USC00505857","2010-02-03",10.94,-5.98,0.00,0.00,483.00
"USC00505857","2010-02-04",-2.92,-20.92,0.00,0.00,483.00
"USC00505857","2010-02-05",-4.00,-9.04,0.00,0.00,483.00
"USC00505857","2010-02-06",-2.92,-5.98,0.00,0.00,483.00
"USC00505857","2010-02-07",19.94,-2.92,0.00,0.00,483.00
"USC00505857","2010-02-08",21.92,-2.02,0.00,0.00,483.00
"USC00505857","2010-02-09",17.96,-7.06,0.00,0.00,483.00
"USC00505857","2010-02-10",12.92,-5.08,0.00,0.00,483.00
"USC00505857","2010-02-11",19.94,-5.98,0.00,0.00,483.00
"USC00505857","2010-02-12",15.98,-5.98,0.00,0.00,483.00
"USC00505857","2010-02-13",17.06,-7.06,0.00,0.00,483.00
"USC00505857","2010-02-14",19.94,-0.94,0.00,0.00,483.00
"USC00505857","2010-02-15",21.92,6.08,0.00,0.00,483.00
"USC00505857","2010-02-16",26.96,5.00,0.00,0.00,457.00
"USC00505857","2010-02-17",28.04,3.02,0.00,0.00,457.00
"USC00505857","2010-02-18",26.96,10.04,0.00,0.00,457.00
"USC00505857","2010-02-19",30.92,5.00,3.00,25.00,483.00
"USC00505857","2010-02-20",32.00,5.00,0.00,0.00,483.00
"USC00505857","2010-02-21",37.94,5.00,0.00,0.00,483.00
"USC00505857","2010-02-22",28.94,3.92,0.00,0.00,483.00
"USC00505857","2010-02-23",28.94,1.94,0.00,0.00,483.00
"USC00505857","2010-02-24",19.94,6.98,0.00,0.00,483.00
"USC00505857","2010-02-25",19.04,3.92,0.00,0.00,483.00
"USC00505857","2010-02-26",14.00,-5.08,56.00,130.00,610.00
"USC00505857","2010-02-27",6.98,-16.06,0.00,0.00,610.00
"USC00505857","2010-02-28",12.92,-13.00,0.00,0.00,610.00
"USC00505857","2010-03-01",17.96,-0.04,0.00,0.00,584.00
"USC00505857","2010-03-02",26.96,8.06,0.00,0.00,584.00
"USC00505857","2010-03-03",37.04,3.02,0.00,0.00,584.00
"USC00505857","2010-03-04",37.04,3.02,0.00,0.00,584.00
"USC00505857","2010-03-05",28.04,3.92,0.00,0.00,584.00
"USC00505857","2010-03-06",32.00,5.00,0.00,0.00,584.00
"USC00505857","2010-03-07",26.06,3.02,0.00,0.00,559.00
"USC00505857","2010-03-08",15.08,-4.00,0.00,0.00,559.00
"USC00505857","2010-03-09",21.92,1.04,0.00,0.00,559.00
"USC00505857","2010-03-10",15.08,-5.98,3.00,30.00,584.00
"USC00505857","2010-03-11",15.98,-9.94,0.00,0.00,584.00
"USC00505857","2010-03-12",15.08,-14.08,0.00,0.00,559.00
"USC00505857","2010-03-13",15.98,-11.92,0.00,0.00,559.00
"USC00505857","2010-03-14",21.92,-2.02,0.00,0.00,559.00
"USC00505857","2010-03-15",28.04,8.06,0.00,0.00,533.00
"USC00505857","2010-03-16",21.02,-2.92,0.00,0.00,508.00
"USC00505857","2010-03-17",24.98,-4.00,0.00,0.00,483.00
"USC00505857","2010-03-18",24.08,-5.98,0.00,0.00,483.00
"USC00505857","2010-03-19",37.94,-2.02,0.00,0.00,457.00
"USC00505857","2010-03-20",23.00,1.94,3.00,28.00,483.00
"USC00505857","2010-03-21",30.92,-7.06,0.00,0.00,483.00
"USC00505857","2010-03-22",26.06,-11.92,0.00,0.00,483.00
"USC00505857","2010-03-23",21.02,-5.08,0.00,0.00,457.00
"USC00505857","2010-03-24",24.08,3.02,0.00,0.00,457.00
"USC00505857","2010-03-25",26.06,-4.00,0.00,0.00,457.00
"USC00505857","2010-03-26",33.08,1.94,0.00,0.00,457.00
"USC00505857","2010-03-27",30.92,5.00,0.00,0.00,457.00
"USC00505857","2010-03-28",39.92,19.94,0.00,0.00,432.00
"USC00505857","2010-03-29",37.94,6.98,0.00,0.00,406.00
"USC00505857","2010-03-30",41.00,12.02,0.00,0.00,406.00
"USC00505857","2010-03-31",44.06,12.02,0.00,0.00,381.00